{"data":{"norad_id":54187,"epoch":"2026-09-20T07:32:32.394912Z","epoch_age_seconds":106344,"freshness":"FRESH","line1":"1 54187U 22141AG  26263.31426383  .00000169  00000+0  16144-4 0  9999","line2":"2 54187  53.1600 194.7263 0001269  93.8692 266.2455 15.34389293215453","mean_motion":15.34389293,"eccentricity":0.0001269,"inclination_deg":53.16,"raan_deg":194.7263,"arg_perigee_deg":93.8692,"mean_anomaly_deg":266.2455,"bstar":1.6144e-5,"rev_number":21545,"period_min":93.848412952918,"perigee_km":461.86695718765,"apogee_km":463.60317051746,"semimajor_km":6840.8720638526,"source":"CELESTRAK","updated_at":"2026-09-21T09:00:33.094003Z"}}